1323475234525,117.631
1323475294525,117.728
1323475354525,117.943
1323475414525,117.448
1323475474525,117.726
1323475534525,117.285
1323475594525,117.551
1323475654525,117.458
1323475714525,117.806
1323475774525,117.677
1323475834525,117.506
1323475894525,117.562
1323475954525,117.649
1323476014525,117.411
1323476074525,117.434
1323476134525,117.971
1323476194525,117.748
1323476254525,117.749
1323476314525,117.969
1323476374525,117.360
1323476434525,118.078
1323476494525,117.873
1323476554525,118.067
1323476614525,118.184
1323476674525,118.129
1323476734525,117.927
1323476794525,118.016
1323476854525,118.034
1323476914525,117.759
1323476974525,117.558
1323477034525,117.916
1323477094525,117.238
1323477154525,118.311
1323477214525,117.597
1323477274525,118.520
1323477334525,117.924
1323477394525,118.144
1323477454525,118.071
1323477514525,118.392
1323477574525,118.303
1323477634525,118.260
1323477694525,118.451
1323477754525,118.422
1323477814525,118.675
1323477874525,118.347
1323477934525,118.797
1323477994525,118.205
1323478054525,118.531
1323478114525,119.087
1323478174525,118.252
1323478234525,118.670
1323478294525,118.363
1323478354525,118.581
1323478414525,119.084
1323478474525,118.583
1323478534525,119.006
1323478594525,119.100
1323478654525,118.823
1323478714525,119.124
1323478774525,119.111
1323478834535,118.521
1323478894535,118.775
1323478954535,118.746
1323479014535,119.123
1323479074535,118.914
1323479134535,119.217
1323479194535,118.750
1323479254535,118.823
1323479314535,119.339
1323479374535,118.963
1323479434535,119.004
1323479494535,118.913
1323479554535,119.020
1323479614535,119.013
1323479674535,119.200
1323479734535,118.660
1323479794536,118.851
1323479854536,119.279
1323479914536,118.959
1323479974536,119.094
1323480034535,118.956
1323480094535,118.640
1323480154535,119.388
1323480214535,119.110
1323480274535,119.158
1323480334535,119.060
1323480394535,119.132
1323480454535,119.057
1323480514535,119.160
1323480574535,118.731
1323480634535,119.443
1323480694535,119.584
1323480754535,119.274
1323480814535,118.639
1323480874535,119.188
1323480934535,119.303
1323480994535,119.390
1323481054535,119.526
1323481114536,119.654
1323481174536,118.787
1323481234536,119.294
1323481294536,119.257
1323481354535,119.185
1323481414535,119.325
1323481474535,118.881
1323481534535,118.776
1323481594535,119.243
1323481654535,119.724
1323481714535,119.981
1323481774535,119.586
1323481834535,119.224
1323481894535,119.776
1323481954535,119.998
1323482014535,119.311
1323482074535,119.130
1323482134535,118.948
1323482194535,119.624
1323482254535,119.659
1323482314535,120.574
1323482374535,120.041
1323482434546,119.817
1323482494546,119.989
1323482554546,119.650
1323482614546,119.917
1323482674546,119.365
1323482734546,120.069
1323482794546,120.078
1323482854546,120.209
1323482914546,120.101
1323482974546,119.747
1323483034546,119.816
1323483094546,120.139
1323483154546,120.753
1323483214546,119.716
1323483274546,120.375
1323483334546,120.706
1323483394546,120.739
1323483454546,120.655
1323483514546,120.101
1323483574546,119.922
1323483634546,120.854
1323483694546,120.651
1323483754546,120.826
1323483814546,120.265
1323483874546,120.838
1323483934546,120.704
1323483994546,120.714
1323484054546,120.049
1323484114546,120.507
1323484174546,120.525
1323484234546,120.601
1323484294546,120.395
1323484354546,120.409
1323484414546,120.812
1323484474546,120.577
1323484534546,120.328
1323484594546,121.212
1323484654546,120.985
1323484714546,120.605
1323484774546,121.155
1323484834546,120.555
1323484894546,120.837
1323484954546,120.680
1323485014546,121.073
1323485074546,121.041
1323485134546,121.170
1323485194546,120.810
1323485254546,121.148
1323485314546,120.829
1323485374546,121.310
1323485434546,121.054
1323485494546,120.858
1323485554546,120.539
1323485614546,121.164
1323485674546,120.953
1323485734546,121.329
1323485794546,120.863
1323485854546,120.946
1323485914546,121.036
1323485974546,121.276
1323486034556,120.600
1323486094556,120.765
1323486154556,121.344
1323486214556,121.014
1323486274556,120.493
1323486334556,121.216
1323486394556,120.808
1323486454556,120.763
1323486514556,121.512
1323486574556,120.640
1323486634556,120.967
1323486694556,120.995
1323486754556,121.051
1323486814556,120.923
1323486874556,120.827
1323486934556,121.193
1323486994556,121.122
1323487054556,120.947
1323487114556,120.542
1323487174556,121.377
1323487234556,121.496
1323487294556,121.283
1323487354556,121.022
1323487414556,121.579
1323487474556,121.634
1323487534556,121.826
1323487594556,121.667
1323487654556,121.338
1323487714556,121.551
1323487774556,121.003
1323487834556,121.764
1323487894556,121.016
1323487954556,121.609
1323488014556,120.983
1323488074556,121.449
1323488134556,121.159
1323488194556,120.702
1323488254556,121.381
1323488314556,121.095
1323488374556,120.954
1323488434556,121.725
1323488494556,121.395
1323488554556,121.444
1323488614556,120.879
1323488674556,120.834
1323488734556,120.932
1323488794556,121.116
1323488854556,120.741
1323488914556,120.421
1323488974556,120.793
1323489034556,120.985
1323489094556,120.625
1323489154556,120.775
1323489214556,121.266
1323489274556,120.436
1323489334556,120.301
1323489394556,120.599
1323489454556,120.270
1323489514556,121.038
1323489574556,120.506
1323489634566,120.455
1323489694566,120.569
1323489754566,120.535
1323489814566,120.303
1323489874566,120.381
1323489934566,120.603
1323489994566,120.721
1323490054566,120.413
1323490114566,120.946
1323490174566,120.321
1323490234566,120.588
1323490294566,120.436
1323490354566,120.742
1323490414566,120.816
1323490474566,119.762
1323490534566,120.442
1323490594566,120.426
1323490654566,119.795
1323490714566,119.885
1323490774566,119.599
1323490834566,119.871
1323490894566,119.992
1323490954566,120.436
1323491014566,120.206
1323491074566,120.125
1323491134566,120.136
1323491194566,119.913
1323491254566,120.198
1323491314566,119.779
1323491374566,119.975
1323491434566,120.144
1323491494566,120.115
1323491554566,120.224
1323491614566,119.918
1323491674566,119.896
1323491734566,120.038
1323491794566,120.046
1323491854566,120.753
1323491914566,120.245
1323491974566,120.077
1323492034566,119.748
1323492094566,120.267
1323492154566,119.668
1323492214566,120.507
1323492274566,120.069
1323492334566,119.925
1323492394566,119.836
1323492454566,120.298
1323492514566,119.999
1323492574566,120.192
1323492634566,120.627
1323492694566,120.232
1323492754566,120.331
1323492814566,120.599
1323492874566,120.178
1323492934566,121.014
1323492994566,120.507
1323493054566,120.489
1323493114566,120.456
1323493174566,120.776
1323493234576,120.734
1323493294576,120.898
1323493354576,120.751
1323493414576,120.240
1323493474576,120.447
1323493534576,121.004
1323493594576,120.143
1323493654576,120.434
1323493714576,120.011
1323493774576,120.323
1323493834576,120.513
1323493894576,120.366
1323493954576,120.409
1323494014576,120.692
1323494074576,120.263
1323494134576,120.238
1323494194576,120.574
1323494254576,120.371
1323494314576,120.473
1323494374576,119.912
1323494434576,119.968
1323494494576,120.302
1323494554576,120.315
1323494614576,119.966
1323494674576,120.162
1323494734576,120.199
1323494794576,120.582
1323494854576,120.423
1323494914576,120.099
1323494974576,119.883
1323495034576,120.564
1323495094576,120.322
1323495154576,120.231
1323495214576,119.909
1323495274576,120.571
1323495334576,120.406
1323495394576,120.740
1323495454576,120.392
1323495514576,119.873
1323495574576,119.677
1323495634576,120.674
1323495694576,120.450
1323495754576,120.494
1323495814576,120.555
1323495874576,120.891
1323495934576,120.502
1323495994576,120.245
1323496054576,120.504
1323496114576,120.688
1323496174576,120.495
1323496234576,120.694
1323496294576,120.794
1323496354576,120.453
1323496414576,121.017
1323496474576,120.908
1323496534576,121.104
1323496594576,120.924
1323496654576,121.147
1323496714576,121.047
1323496774576,120.775
1323496834587,120.674
1323496894587,120.928
1323496954587,120.978
1323497014587,121.146
1323497074587,120.819
1323497134587,120.930
1323497194587,120.826
1323497254587,121.218
1323497314587,120.817
1323497374587,121.222
1323497434587,120.502
1323497494587,121.516
1323497554587,121.219
1323497614587,121.371
1323497674587,121.239
1323497734587,121.135
1323497794587,121.369
1323497854587,121.572
1323497914587,121.610
1323497974587,121.890
1323498034587,122.083
1323498094587,121.764
1323498154587,121.583
1323498214587,121.885
1323498274587,121.437
1323498334587,121.340
1323498394587,121.843
1323498454587,121.748
1323498514587,122.133
1323498574587,122.005
1323498634587,121.949
1323498694587,121.996
1323498754587,121.906
1323498814587,121.630
1323498874587,122.328
1323498934587,122.423
1323498994587,122.205
1323499054587,121.874
1323499114587,122.688
1323499174587,122.485
1323499234587,122.012
1323499294587,122.096
1323499354587,121.775
1323499414587,121.747
1323499474587,122.340
1323499534587,122.285
1323499594587,122.611
1323499654587,122.141
1323499714587,122.122
1323499774587,122.144
1323499834587,122.528
1323499894587,122.757
1323499954587,122.537
1323500014587,123.064
1323500074587,122.801
1323500134587,122.407
1323500194587,122.731
1323500254587,122.064
1323500314587,122.379
1323500374587,122.825
1323500434597,122.384
1323500494597,122.504
1323500554597,123.133
1323500614597,122.625
1323500674597,122.547
1323500734597,122.591
1323500794597,123.168
1323500854597,123.215
1323500914597,122.835
1323500974597,123.253
1323501034597,122.732
1323501094597,122.902
1323501154597,123.080
1323501214597,123.046
1323501274597,122.852
1323501334597,122.749
1323501394597,122.617
1323501454597,123.272
1323501514597,123.151
1323501574597,122.592
1323501634597,123.100
1323501694597,122.786
1323501754597,123.416
1323501814597,122.911
1323501874597,123.281
1323501934597,123.072
1323501994597,123.216
1323502054597,123.209
1323502114597,122.984
1323502174597,123.182
1323502234597,123.062
1323502294597,123.112
1323502354597,123.041
1323502414597,123.157
1323502474597,123.352
1323502534597,123.343
1323502594597,122.984
1323502654597,123.372
1323502714597,123.598
1323502774597,123.626
1323502834597,123.296
1323502894597,123.670
1323502954597,123.503
1323503014597,123.737
1323503074597,123.445
1323503134597,123.332
1323503194597,123.935
1323503254597,123.466
1323503314597,123.802
1323503374597,123.807
1323503434597,123.557
1323503494597,124.001
1323503554597,123.871
1323503614597,124.073
1323503674597,124.579
1323503734597,123.253
1323503794597,123.753
1323503854597,123.931
1323503914597,123.891
1323503974597,123.683
1323504034608,123.598
1323504094608,124.146
1323504154608,123.996
1323504214608,124.149
1323504274608,123.957
1323504334608,123.917
1323504394608,123.793
1323504454608,124.135
1323504514609,123.904
1323504574609,124.466
1323504634609,124.051
1323504694608,124.556
1323504754608,124.314
1323504814608,123.963
1323504874609,124.144
1323504934609,124.103
1323504994609,124.053
1323505054609,124.421
1323505114609,124.145
1323505174609,123.918
1323505234609,124.143
1323505294609,124.324
1323505354609,124.408
1323505414608,124.491
1323505474608,124.254
1323505534608,124.149
1323505594608,123.752
1323505654608,124.682
1323505714608,124.091
1323505774608,124.631
1323505834609,124.175
1323505894609,124.048
1323505954609,124.223
1323506014609,124.711
1323506074608,124.172
1323506134608,124.046
1323506194609,124.651
1323506254609,124.249
1323506314609,124.486
1323506374609,124.447
1323506434609,124.569
1323506494609,124.877
1323506554609,124.456
1323506614609,123.646
1323506674609,124.478
1323506734608,124.268
1323506794608,125.057
1323506854608,124.692
1323506914608,124.736
1323506974608,124.564
1323507034608,124.705
1323507094608,125.064
1323507154608,124.586
1323507214609,124.252
1323507274609,124.662
1323507334609,124.197
1323507394608,124.437
1323507454608,124.867
1323507514608,124.296
1323507574609,124.403
1323507634620,124.511
1323507694620,124.511
1323507754620,124.631
1323507814620,124.656
1323507874620,124.806
1323507934620,124.290
1323507994620,125.361
1323508054620,124.770
1323508114620,124.249
1323508174620,123.823
1323508234620,124.477
1323508294620,125.155
1323508354620,124.103
1323508414620,125.304
1323508474620,124.888
1323508534620,124.767
1323508594620,124.857
1323508654620,124.487
1323508714620,124.650
1323508774620,125.225
1323508834620,124.835
1323508894620,124.551
1323508954620,124.687
1323509014620,124.613
1323509074620,124.790
1323509134620,125.140
1323509194620,124.277
1323509254620,124.938
1323509314620,124.799
1323509374620,124.516
1323509434620,124.234
1323509494620,124.693
1323509554620,124.154
1323509614620,124.387
1323509674620,124.977
1323509734620,124.951
1323509794620,124.200
1323509854620,125.033
1323509914620,124.445
1323509974620,124.144
1323510034620,124.015
1323510094620,124.012
1323510154620,124.040
1323510214620,125.038
1323510274620,124.981
1323510334620,124.800
1323510394620,124.502
1323510454620,124.394
1323510514620,124.553
1323510574620,124.185
1323510634620,124.077
1323510694620,123.845
1323510754620,124.249
1323510814620,124.008
1323510874620,124.237
1323510934620,124.847
1323510994620,124.619
1323511054620,124.616
1323511114620,124.163
1323511174620,124.162
1323511234631,124.601
1323511294631,124.298
1323511354631,124.533
1323511414631,124.870
1323511474631,124.833
1323511534631,124.741
1323511594631,123.993
1323511654631,124.301
1323511714631,124.157
1323511774631,123.973
1323511834631,124.571
1323511894631,124.484
1323511954631,124.830
1323512014631,124.120
1323512074631,124.185
1323512134631,124.023
1323512194631,124.435
1323512254631,124.560
1323512314631,124.377
1323512374631,124.513
1323512434631,124.229
1323512494631,124.383
1323512554631,124.096
1323512614631,124.516
1323512674631,123.931
1323512734631,123.802
1323512794631,124.115
1323512854631,124.760
1323512914631,124.584
1323512974631,124.675
1323513034631,124.633
1323513094631,124.347
1323513154631,124.533
1323513214631,124.157
1323513274631,124.420
1323513334631,124.799
1323513394631,123.699
1323513454631,124.263
1323513514631,124.929
1323513574631,124.062
1323513634631,124.202
1323513694631,124.406
1323513754631,124.341
1323513814631,124.387
1323513874631,124.070
1323513934631,124.013
1323513994631,124.039
1323514054631,123.923
1323514114631,124.111
1323514174631,124.044
1323514234631,124.167
1323514294631,123.663
1323514354631,124.054
1323514414631,123.589
1323514474631,124.061
1323514534631,124.406
1323514594631,123.628
1323514654631,123.953
1323514714631,124.048
1323514774631,123.860
1323514834643,124.375
1323514894643,123.193
1323514954643,123.624
1323515014643,124.063
1323515074643,123.983
1323515134643,123.977
1323515194643,123.593
1323515254643,123.956
1323515314643,123.576
1323515374643,124.218
1323515434643,123.629
1323515494643,123.286
1323515554643,123.267
1323515614643,123.158
1323515674643,123.993
1323515734643,123.340
1323515794643,123.311
1323515854643,123.078
1323515914643,123.640
1323515974643,122.795
1323516034643,123.089
1323516094643,123.167
1323516154643,123.526
1323516214643,123.228
1323516274643,123.379
1323516334643,123.620
1323516394643,123.273
1323516454643,123.451
1323516514643,123.383
1323516574643,123.499
1323516634643,123.145
1323516694643,123.631
1323516754643,123.335
1323516814643,123.463
1323516874643,123.171
1323516934643,123.487
1323516994643,123.778
1323517054643,123.503
1323517114643,123.100
1323517174643,123.801
1323517234643,123.601
1323517294643,123.315
1323517354643,123.160
1323517414643,123.479
1323517474643,123.530
1323517534643,123.379
1323517594643,123.433
1323517654643,123.047
1323517714643,123.298
1323517774643,122.528
1323517834643,122.970
1323517894643,123.050
1323517954643,122.873
1323518014643,122.635
1323518074643,122.956
1323518134643,123.140
1323518194643,122.792
1323518254643,122.973
1323518314643,122.847
1323518374643,122.343
1323518434655,122.759
1323518494655,123.202
1323518554655,122.674
1323518614655,122.579
1323518674655,122.625
1323518734655,122.546
1323518794655,122.677
1323518854655,123.405
1323518914655,122.784
1323518974655,122.379
1323519034655,122.525
1323519094655,122.430
1323519154655,123.031
1323519214655,122.879
1323519274655,122.775
1323519334655,122.086
1323519394655,122.313
1323519454655,122.459
1323519514655,122.248
1323519574655,123.108
1323519634655,122.942
1323519694655,122.355
1323519754655,122.744
1323519814655,122.791
1323519874655,122.493
1323519934655,121.902
1323519994655,122.476
1323520054655,122.230
1323520114655,122.608
1323520174655,121.860
1323520234655,122.111
1323520294655,122.069
1323520354655,122.365
1323520414655,121.846
1323520474655,122.485
1323520534655,121.793
1323520594655,122.460
1323520654655,122.466
1323520714655,122.325
1323520774655,121.916
1323520834655,121.928
1323520894655,122.272
1323520954655,121.549
1323521014655,122.588
1323521074655,122.111
1323521134655,122.483
1323521194655,121.625
1323521254655,121.769
1323521314655,122.639
1323521374655,122.066
1323521434655,122.238
1323521494655,122.140
1323521554655,122.317
1323521614655,122.044
1323521674655,122.077
1323521734655,121.952
1323521794655,121.840
1323521854655,121.889
1323521914655,121.434
1323521974655,121.459
1323522034667,121.419
1323522094667,121.891
1323522154667,122.144
1323522214667,121.958
1323522274667,121.738
1323522334667,121.822
1323522394667,121.550
1323522454667,121.382
1323522514667,121.711
1323522574667,121.140
1323522634667,121.733
1323522694667,121.449
1323522754667,121.029
1323522814667,121.360
1323522874667,121.231
1323522934667,121.112
1323522994667,121.689
1323523054667,121.444
1323523114667,121.490
1323523174667,120.981
1323523234667,121.665
1323523294667,121.098
1323523354667,121.012
1323523414667,121.281
1323523474667,121.086
1323523534667,120.656
1323523594667,121.679
1323523654667,121.023
1323523714667,121.109
1323523774667,120.918
1323523834667,121.320
1323523894667,121.173
1323523954667,121.295
1323524014667,121.299
1323524074667,121.638
1323524134667,121.237
1323524194667,120.878
1323524254667,120.806
1323524314667,121.085
1323524374667,121.080
1323524434667,121.885
1323524494667,120.594
1323524554667,121.155
1323524614667,120.837
1323524674667,120.883
1323524734667,121.400
1323524794667,120.878
1323524854667,120.778
1323524914667,120.997
1323524974667,120.974
1323525034667,120.606
1323525094667,120.662
1323525154667,120.277
1323525214667,120.853
1323525274667,120.722
1323525334667,121.046
1323525394667,120.689
1323525454667,120.595
1323525514667,120.322
1323525574667,120.393
1323525634679,120.140
1323525694679,120.696
1323525754679,119.952
1323525814679,120.212
1323525874679,120.790
1323525934679,121.267
1323525994679,119.997
1323526054679,120.474
1323526114679,120.553
1323526174679,120.480
1323526234679,121.141
1323526294679,120.711
1323526354679,120.892
1323526414679,120.545
1323526474679,120.738
1323526534679,120.348
1323526594679,120.313
1323526654679,120.689
1323526714679,120.810
1323526774679,119.804
1323526834679,120.330
1323526894679,120.191
1323526954679,120.129
1323527014679,120.675
1323527074679,120.281
1323527134679,120.384
1323527194679,120.191
1323527254679,120.004
1323527314679,120.208
1323527374679,120.378
1323527434679,119.973
1323527494679,119.763
1323527554679,119.932
1323527614679,119.910
1323527674679,120.068
1323527734679,119.618
1323527794679,120.307
1323527854679,120.438
1323527914679,120.159
1323527974679,119.974
1323528034679,119.935
1323528094679,119.652
1323528154679,119.264
1323528214679,120.227
1323528274679,119.751
1323528334679,119.459
1323528394679,120.082
1323528454679,120.283
1323528514679,120.715
1323528574679,119.854
1323528634679,119.633
1323528694679,120.002
1323528754679,119.495
1323528814679,120.347
1323528874679,119.795
1323528934679,119.830
1323528994679,119.687
1323529054679,120.091
1323529114679,120.168
1323529174679,119.593
1323529234691,119.911
1323529294691,119.717
1323529354691,119.568
1323529414691,120.063
1323529474691,119.885
1323529534691,119.948
1323529594691,119.383
1323529654691,119.314
1323529714691,119.097
1323529774691,119.292
1323529834691,118.942
1323529894691,118.947
1323529954691,119.520
1323530014691,119.435
1323530074691,118.416
1323530134691,118.783
1323530194691,118.908
1323530254691,118.644
1323530314691,119.196
1323530374691,118.538
1323530434691,118.666
1323530494691,118.948
1323530554691,118.501
1323530614691,118.357
1323530674691,118.536
1323530734691,118.772
1323530794691,118.897
1323530854691,119.121
1323530914691,118.678
1323530974691,118.638
1323531034691,118.399
1323531094691,118.337
1323531154691,118.270
1323531214691,118.619
1323531274691,118.553
1323531334691,118.497
1323531394691,118.332
1323531454691,118.194
1323531514691,118.473
1323531574691,118.205
1323531634691,117.936
1323531694691,118.112
1323531754691,118.296
1323531814691,118.447
1323531874691,118.353
1323531934691,118.176
1323531994691,118.239
1323532054691,118.719
1323532114691,118.047
1323532174691,117.916
1323532234691,117.563
1323532294691,118.065
1323532354691,117.853
1323532414691,117.818
1323532474691,117.752
1323532534691,118.374
1323532594691,117.546
1323532654691,117.535
1323532714691,117.970
1323532774691,117.951
1323532834703,117.995
1323532894703,117.120
1323532954703,118.021
1323533014703,118.004
1323533074703,117.369
1323533134703,117.755
1323533194703,116.790
1323533254703,117.688
1323533314703,117.574
1323533374703,117.337
1323533434703,116.856
1323533494703,117.320
1323533554703,117.689
1323533614703,117.071
1323533674703,117.663
1323533734703,117.473
1323533794703,117.216
1323533854703,117.429
1323533914703,117.424
1323533974703,117.246
1323534034703,117.377
1323534094703,117.146
1323534154703,117.483
1323534214703,117.206
1323534274703,117.097
1323534334703,117.429
1323534394703,117.677
1323534454703,117.572
1323534514703,118.049
1323534574703,117.666
1323534634703,117.330
1323534694703,118.070
1323534754703,117.503
1323534814703,117.505
1323534874703,117.352
1323534934703,117.399
1323534994703,117.780
1323535054703,117.575
1323535114703,118.028
1323535174703,117.308
1323535234703,117.923
1323535294703,117.483
1323535354703,117.965
1323535414703,118.219
1323535474703,117.738
1323535534703,118.079
1323535594703,117.810
1323535654703,118.110
1323535714703,117.444
1323535774703,118.348
1323535834703,117.855
1323535894703,118.116
1323535954703,118.420
1323536014703,117.879
1323536074703,117.972
1323536134703,118.161
1323536194703,118.117
1323536254703,118.084
1323536314703,118.139
1323536374703,118.385
1323536434715,118.576
1323536494715,118.224
1323536554715,118.236
1323536614715,118.181
1323536674715,118.282
1323536734715,117.967
1323536794715,118.446
1323536854715,118.686
1323536914715,118.000
1323536974715,118.028
1323537034715,117.957
1323537094715,118.457
1323537154715,118.117
1323537214715,117.668
1323537274715,118.093
1323537334715,118.295
1323537394715,118.010
1323537454715,118.340
1323537514715,118.429
1323537574715,118.402
1323537634715,118.757
1323537694715,118.373
1323537754715,118.199
1323537814715,118.104
1323537874715,118.352
1323537934715,118.497
1323537994715,118.316
1323538054715,118.448
1323538114715,118.863
1323538174715,118.442
1323538234715,118.673
1323538294715,118.520
1323538354715,118.270
1323538414715,118.564
1323538474715,118.483
1323538534715,118.089
1323538594715,118.696
1323538654715,118.220
1323538714715,118.420
1323538774715,118.498
1323538834715,117.696
1323538894715,118.826
1323538954715,118.485
1323539014715,118.528
1323539074715,118.210
1323539134715,118.792
1323539194715,118.775
1323539254715,118.591
1323539314715,118.137
1323539374715,119.236
1323539434715,118.955
1323539494715,118.909
1323539554715,119.046
1323539614715,118.500
1323539674715,119.014
1323539734715,118.741
1323539794715,119.323
1323539854715,118.979
1323539914715,119.259
1323539974715,118.829
1323540034726,118.849
1323540094726,119.900
1323540154726,119.333
1323540214726,119.367
1323540274726,119.143
1323540334726,119.136
1323540394726,118.788
1323540454726,119.014
1323540514726,119.004
1323540574726,119.389